NILESAT 301 (52817 NORAD) Tracking and Keplerian Element Data

This shows tracking and keplerian element data for the satellite.

Feedback or suggestion? Click here.




ElementValue
Catalog52817
NameNILESAT 301
Epoch Orbit33
Epoch Day192.40605115
Epoch Year2022
RAAN32.9907
Inclination0.0266
Eccentricity0.0003496
Argument of Perigee32.1541
Mean Anonmoly3.3197
Mean Motion1.0027255
Decay Rate-5.1E-07
L11 52817U 22061A 22192.40605115 -.00000051 00000+0 00000+0 0 9997
L22 52817 0.0266 32.9907 0003496 32.1541 3.3197 1.00272550 338

Live tracking and technical data element details for NILESAT 301 (NORAD 52817). NILESAT 301 can be tracked NOW for your location showing map with azimuth and elevation plus other details from your city location.

Track the satellite on the map from your city or location and see movement details for azimuth, elevation, latitude, longitude, range, height, and movement on the map or in text.







IsCatalogInMostPopularTable: catalog: 52817, numindb: 26
Update: records affected: 1



GetName: 52817 NILESAT 301

Hit Count: updated at: Sun, 14 Aug 2022 01:00:34 GMT